| time (UTC) | temp F | wind direction | speed knots | gust knots | rain 1hr in | rain 24hr in | rain mn in | humidity % | barometer mb |
| 20260506181559 | 55 | 0.0 | 0.0 | 0.16 | 0.37 | 0.36 | 96 | 1005.5 | |
| 20260506180057 | 55 | 0.0 | 0.0 | 0.17 | 0.35 | 0.34 | 95 | 1005.9 | |
| 20260506174556 | 55 | 0.0 | 0.0 | 0.14 | 0.29 | 0.28 | 95 | 1006.0 | |
| 20260506173059 | 55 | 0.0 | 0.0 | 0.13 | 0.24 | 0.23 | 94 | 1006.4 | |
| 20260506171607 | 55 | 0.0 | 0.0 | 0.13 | 0.21 | 0.20 | 94 | 1006.6 | |
| 20260506170059 | 55 | 0.0 | 0.0 | 0.12 | 0.18 | 0.17 | 94 | 1006.8 | |
| 20260506164557 | 55 | 0.0 | 0.0 | 0.10 | 0.15 | 0.14 | 94 | 1007.1 | |
| 20260506163106 | 55 | 0.0 | 0.0 | 0.07 | 0.11 | 0.10 | 94 | 1007.0 | |
| 20260506161557 | 56 | 0.0 | 0.0 | 0.05 | 0.08 | 0.07 | 94 | 1007.1 | |
| 20260506160109 | 56 | 0.0 | 0.0 | 0.04 | 0.06 | 0.05 | 93 | 1007.1 | |
| 20260506154559 | 56 | 0.0 | 0.0 | 0.04 | 0.05 | 0.04 | 92 | 1007.3 | |
| 20260506153055 | 56 | 0.0 | 0.0 | 0.03 | 0.04 | 0.03 | 91 | 1007.5 | |
| 20260506151559 | 57 | 0.0 | 0.0 | 0.02 | 0.03 | 0.02 | 89 | 1007.8 | |
| 20260506144603 | 58 | 0.0 | 0.0 | 0.00 | 0.01 | 0.00 | 84 | 1008.2 | |
| 20260506143058 | 59 | 0.0 | 0.0 | 0.00 | 0.01 | 0.00 | 81 | 1008.1 | |
| 20260506141555 | 58 | 0.0 | 0.0 | 0.00 | 0.01 | 0.00 | 83 | 1008.1 | |
| 20260506140104 | 58 | 0.0 | 0.0 | 0.00 | 0.01 | 0.00 | 83 | 1007.9 | |
| 20260506134601 | 58 | 0.0 | 0.0 | 0.00 | 0.01 | 0.00 | 83 | 1007.7 | |
| 20260506133057 | 57 | 0.0 | 0.0 | 0.00 | 0.01 | 0.00 | 85 | 1007.7 | |
| 20260506131607 | 56 | 0.0 | 0.0 | 0.00 | 0.01 | 0.00 | 85 | 1007.8 | |
| 20260506130056 | 56 | 0.0 | 0.0 | 0.00 | 0.01 | 0.00 | 87 | 1008.0 | |
| 20260506124555 | 54 | 0.0 | 0.0 | 0.00 | 0.01 | 0.00 | 89 | 1008.3 | |
| 20260506123057 | 53 | 0.0 | 0.0 | 0.00 | 0.01 | 0.00 | 89 | 1008.4 | |
| 20260506121603 | 52 | 0.0 | 0.0 | 0.00 | 0.01 | 0.00 | 92 | 1008.3 | |
| 20260506120104 | 51 | 0.0 | 0.0 | 0.00 | 0.01 | 0.00 | 91 | 1008.3 | |
| 20260506114558 | 51 | 0.0 | 0.0 | 0.00 | 0.02 | 0.00 | 92 | 1007.6 | |
| 20260506113057 | 51 | 0.0 | 0.0 | 0.00 | 0.02 | 0.00 | 92 | 1008.1 | |
| 20260506111605 | 50 | 0.0 | 0.0 | 0.00 | 0.02 | 0.00 | 93 | 1008.4 | |
| 20260506104608 | 50 | 0.0 | 0.0 | 0.00 | 0.02 | 0.00 | 93 | 1008.2 | |
| 20260506103059 | 50 | 0.0 | 0.0 | 0.00 | 0.02 | 0.00 | 93 | 1008.1 | |
| 20260506101555 | 50 | 0.0 | 0.0 | 0.00 | 0.02 | 0.00 | 93 | 1008.1 | |
| 20260506100114 | 51 | 0.0 | 0.0 | 0.00 | 0.02 | 0.00 | 93 | 1007.9 | |
| 20260506094602 | 51 | 0.0 | 0.0 | 0.00 | 0.02 | 0.00 | 94 | 1008.0 | |
| 20260506093101 | 51 | 0.0 | 0.0 | 0.00 | 0.02 | 0.00 | 94 | 1008.1 | |
| 20260506091558 | 51 | 0.0 | 0.0 | 0.00 | 0.02 | 0.00 | 94 | 1008.2 | |
| 20260506090055 | 52 | 0.0 | 0.0 | 0.00 | 0.02 | 0.00 | 93 | 1008.2 | |
| 20260506084603 | 52 | 0.0 | 0.0 | 0.00 | 0.02 | 0.00 | 93 | 1008.1 | |
| 20260506083056 | 52 | 0.0 | 0.0 | 0.00 | 0.02 | 0.00 | 93 | 1008.2 | |
| 20260506081556 | 52 | 0.0 | 0.0 | 0.00 | 0.02 | 0.00 | 93 | 1008.5 | |
| 20260506073056 | 53 | 0.0 | 0.0 | 0.00 | 0.02 | 0.00 | 89 | 1008.8 | |
| 20260506071559 | 54 | 0.0 | 0.0 | 0.00 | 0.02 | 0.00 | 87 | 1008.8 | |
| 20260506061556 | 56 | 0.0 | 0.0 | 0.00 | 0.02 | 0.00 | 83 | 1008.7 | |
| 20260506044558 | 58 | 0.0 | 0.0 | 0.00 | 0.02 | 0.00 | 79 | 1009.2 | |
| 20260506043056 | 58 | 0.0 | 0.0 | 0.00 | 0.02 | 0.00 | 77 | 1009.2 | |
| 20260506041605 | 59 | 0.0 | 0.0 | 0.00 | 0.02 | 0.00 | 77 | 1009.0 | |
| 20260506040110 | 59 | 0.0 | 0.0 | 0.00 | 0.02 | 0.00 | 75 | 1009.2 | |
| 20260506034556 | 59 | 0.0 | 0.0 | 0.00 | 0.02 | 0.02 | 75 | 1009.1 | |
| 20260506033058 | 59 | 0.0 | 0.0 | 0.00 | 0.02 | 0.02 | 76 | 1009.1 | |
| 20260506031603 | 58 | 0.0 | 0.0 | 0.01 | 0.02 | 0.02 | 78 | 1009.2 | |
| 20260506030116 | 57 | 0.0 | 0.0 | 0.01 | 0.02 | 0.02 | 80 | 1009.4 | |
| 20260506024622 | 57 | 0.0 | 0.0 | 0.01 | 0.02 | 0.02 | 81 | 1009.6 | |
| 20260506023054 | 57 | 0.0 | 0.0 | 0.01 | 0.02 | 0.02 | 81 | 1009.2 | |
| 20260506021600 | 57 | 0.0 | 0.0 | 0.00 | 0.01 | 0.01 | 81 | 1009.3 | |
| 20260506020053 | 58 | 0.0 | 0.0 | 0.00 | 0.01 | 0.01 | 79 | 1009.5 | |
| 20260506014612 | 59 | 0.0 | 0.0 | 0.00 | 0.01 | 0.01 | 75 | 1009.4 | |
| 20260506013055 | 60 | 0.0 | 0.0 | 0.00 | 0.01 | 0.01 | 70 | 1009.3 | |
| 20260506011553 | 60 | 0.0 | 0.0 | 0.00 | 0.01 | 0.01 | 70 | 1009.0 | |
| 20260506010104 | 61 | 0.0 | 0.0 | 0.00 | 0.01 | 0.01 | 67 | 1008.9 | |
| 20260506004554 | 59 | 0.0 | 0.0 | 0.00 | 0.01 | 0.01 | 70 | 1008.5 | |
| 20260506003057 | 58 | 0.0 | 0.0 | 0.00 | 0.01 | 0.01 | 82 | 1008.2 | |
| 20260506001601 | 60 | 0.0 | 0.0 | 0.00 | 0.01 | 0.01 | 72 | 1008.2 | |
| 20260506000107 | 60 | 0.0 | 0.0 | 0.00 | 0.01 | 0.01 | 71 | 1008.6 | |
| 20260505234600 | 60 | 0.0 | 0.0 | 0.00 | 0.01 | 0.01 | 74 | 1008.2 | |
| 20260505233109 | 60 | 0.0 | 0.0 | 0.00 | 0.01 | 0.01 | 73 | 1008.1 | |
| 20260505231558 | 60 | 0.0 | 0.0 | 0.00 | 0.01 | 0.01 | 73 | 1008.0 | |
| 20260505230056 | 60 | 0.0 | 0.0 | 0.00 | 0.01 | 0.01 | 74 | 1007.9 | |
| 20260505224557 | 60 | 0.0 | 0.0 | 0.00 | 0.01 | 0.01 | 76 | 1008.1 | |
| 20260505223055 | 61 | 0.0 | 0.0 | 0.00 | 0.01 | 0.01 | 74 | 1007.8 | |
| 20260505221602 | 65 | 0.0 | 0.0 | 0.00 | 0.01 | 0.01 | 64 | 1007.1 | |
| 20260505220057 | 71 | 0.0 | 0.0 | 0.00 | 0.01 | 0.01 | 40 | 1006.3 | |
| 20260505214605 | 71 | 0.0 | 0.0 | 0.00 | 0.01 | 0.01 | 39 | 1005.9 | |
| 20260505213118 | 72 | 0.0 | 0.0 | 0.00 | 0.01 | 0.01 | 39 | 1005.9 | |
| 20260505211556 | 72 | 0.0 | 0.0 | 0.00 | 0.01 | 0.01 | 38 | 1005.5 | |
| 20260505210106 | 72 | 0.0 | 0.0 | 0.00 | 0.01 | 0.01 | 39 | 1005.3 | |
| 20260505204559 | 72 | 0.0 | 0.0 | 0.00 | 0.01 | 0.01 | 40 | 1005.2 | |
| 20260505203057 | 72 | 0.0 | 0.0 | 0.00 | 0.01 | 0.01 | 39 | 1005.3 | |
| 20260505201555 | 73 | 0.0 | 0.0 | 0.00 | 0.01 | 0.01 | 39 | 1005.3 | |
| 20260505200056 | 73 | 0.0 | 0.0 | 0.00 | 0.01 | 0.01 | 39 | 1005.4 | |
| 20260505194600 | 73 | 0.0 | 0.0 | 0.00 | 0.01 | 0.01 | 39 | 1005.3 | |
| 20260505193124 | 72 | 0.0 | 0.0 | 0.00 | 0.01 | 0.01 | 44 | 1005.5 | |
| 20260505191605 | 71 | 0.0 | 0.0 | 0.00 | 0.01 | 0.01 | 41 | 1005.6 | |
| 20260505190055 | 72 | 0.0 | 0.0 | 0.00 | 0.01 | 0.01 | 42 | 1005.6 | |
| 20260505184601 | 71 | 0.0 | 0.0 | 0.00 | 0.01 | 0.01 | 41 | 1005.7 | |
| 20260505183057 | 72 | 0.0 | 0.0 | 0.00 | 0.01 | 0.01 | 41 | 1005.8 |